FW4406 Weather Reports


time (UTC)temp
C
wind
direction
speed
KPH
gust
KPH
rain 1hr
cm
rain 24hr
cm
rain mn
cm
humidity
%
barometer
mb
20260508001530 13 38 1.6 3.2 0.00 0.00 0.00 50 1012.6
20260508000045 14 85 1.6 4.8 0.00 0.00 0.00 48 1012.4
20260507234550 14 344 0.0 4.8 0.00 0.00 0.00 48 1012.3
20260507233008 15 159 0.0 6.4 0.00 0.00 0.00 46 1012.1
20260507231530 15 5 1.6 8.0 0.00 0.00 0.00 47 1012.1
20260507230050 15 189 0.0 3.2 0.00 0.00 0.00 47 1011.8
20260507224544 15 14 3.2 8.0 0.00 0.00 0.00 49 1011.6
20260507223138 15 5 1.6 4.8 0.00 0.00 0.00 49 1011.6
20260507221507 15 23 0.0 6.4 0.00 0.00 0.00 49 1011.5
20260507220023 15 198 1.6 4.8 0.00 0.00 0.00 48 1011.4
20260507214553 15 30 1.6 9.7 0.00 0.00 0.00 49 1011.4
20260507213111 15 66 0.0 6.4 0.00 0.00 0.00 49 1011.1
20260507211551 16 195 1.6 6.4 0.00 0.00 0.00 48 1011.0
20260507210005 16 51 1.6 8.0 0.00 0.00 0.00 48 1011.1
20260507204527 16 190 3.2 11.3 0.00 0.00 0.00 48 1011.0
20260507203041 16 162 3.2 8.0 0.00 0.00 0.00 47 1011.2
20260507201554 16 202 1.6 9.7 0.00 0.00 0.00 49 1011.3
20260507200104 15 59 0.0 4.8 0.00 0.00 0.00 55 1011.2
20260507194558 16 238 1.6 4.8 0.00 0.00 0.00 52 1011.8
20260507193006 16 164 0.0 6.4 0.00 0.00 0.00 55 1011.9
20260507191509 16 295 1.6 3.2 0.00 0.00 0.00 52 1011.9
20260507190031 16 99 0.0 9.7 0.00 0.00 0.00 52 1012.0
20260507184528 17 186 1.6 8.0 0.00 0.00 0.00 49 1012.0
20260507183038 16 44 1.6 4.8 0.00 0.00 0.00 57 1012.1
20260507181543 16 181 1.6 6.4 0.00 0.00 0.00 50 1012.1
20260507180051 16 180 3.2 6.4 0.00 0.05 0.00 53 1012.1
20260507174602 16 197 1.6 4.8 0.00 0.05 0.00 52 1012.2
20260507173008 16 69 1.6 9.7 0.00 0.05 0.00 54 1012.4
20260507171505 16 267 1.6 9.7 0.00 0.05 0.00 54 1012.7
20260507170021 14 23 3.2 6.4 0.00 0.10 0.00 59 1012.8
20260507164540 15 59 3.2 9.7 0.00 0.10 0.00 55 1012.9
20260507163045 15 44 3.2 8.0 0.00 0.10 0.00 52 1013.1
20260507161601 13 182 3.2 6.4 0.00 0.10 0.00 57 1013.3
20260507160054 14 23 4.8 9.7 0.00 0.20 0.00 55 1013.3
20260507154559 14 200 1.6 8.0 0.00 0.20 0.00 53 1013.6
20260507153010 13 65 1.6 6.4 0.00 0.20 0.00 58 1013.7
20260507151519 13 40 1.6 6.4 0.00 0.20 0.00 63 1014.0
20260507150029 13 34 1.6 6.4 0.00 0.20 0.00 60 1014.0
20260507144542 13 38 1.6 6.4 0.00 0.20 0.00 58 1014.2
20260507143053 13 22 3.2 6.4 0.00 0.20 0.00 60 1014.2
20260507141551 13 105 0.0 4.8 0.00 0.20 0.00 67 1014.6
20260507140055 12 59 0.0 4.8 0.00 0.20 0.00 62 1014.8
20260507134613 12 42 3.2 6.4 0.00 0.20 0.00 62 1015.1
20260507133008 12 184 3.2 4.8 0.00 0.20 0.00 67 1015.2
20260507131522 11 192 1.6 4.8 0.00 0.20 0.00 67 1015.2
20260507130013 10 177 1.6 3.2 0.00 0.25 0.00 73 1015.1
20260507124517 8 40 0.0 1.6 0.00 0.25 0.00 84 1015.2
20260507123022 7 40 0.0 1.6 0.00 0.25 0.00 89 1015.3
20260507121540 6 40 0.0 1.6 0.00 0.25 0.00 92 1015.2
20260507120044 6 67 0.0 3.2 0.00 0.25 0.00 95 1015.2
20260507114556 5 152 0.0 1.6 0.00 0.25 0.00 95 1015.0
20260507113101 5 152 0.0 1.6 0.00 0.25 0.00 95 1015.0
20260507111601 5 152 0.0 1.6 0.00 0.25 0.00 95 1014.8
20260507110058 4 169 0.0 1.6 0.00 0.46 0.00 95 1014.6
20260507104515 4 169 0.0 1.6 0.00 0.46 0.00 94 1014.5
20260507103021 5 169 0.0 1.6 0.00 0.46 0.00 94 1014.4
20260507101534 5 167 0.0 1.6 0.00 0.46 0.00 93 1014.5
20260507100039 5 141 1.6 4.8 0.00 0.76 0.00 93 1014.4
20260507094533 6 20 0.0 1.6 0.00 0.76 0.00 94 1014.3
20260507093039 6 20 0.0 3.2 0.00 0.76 0.00 94 1014.1
20260507091547 7 20 0.0 1.6 0.00 0.76 0.00 93 1014.2
20260507090052 7 20 0.0 1.6 0.00 0.81 0.00 93 1014.2
20260507084550 8 20 0.0 1.6 0.00 0.81 0.00 93 1014.1
20260507083108 8 20 0.0 0.0 0.00 0.81 0.00 92 1014.2
20260507081507 8 20 0.0 1.6 0.00 0.81 0.00 93 1014.1
20260507080024 8 20 0.0 1.6 0.00 0.81 0.00 93 1014.1
20260507074540 8 20 0.0 3.2 0.00 0.81 0.00 93 1013.9
20260507073057 8 20 0.0 1.6 0.00 0.81 0.00 94 1014.0
20260507071555 9 20 0.0 1.6 0.00 0.81 0.00 94 1013.8
20260507070013 9 20 0.0 0.0 0.00 0.81 0.00 94 1013.7
20260507064525 9 20 0.0 1.6 0.00 0.81 0.00 93 1013.9
20260507063029 9 20 0.0 0.0 0.00 0.81 0.00 92 1013.9
20260507061530 9 20 0.0 0.0 0.00 0.81 0.00 92 1013.7
20260507060034 9 20 0.0 1.6 0.00 0.81 0.00 92 1013.6
20260507054534 10 20 0.0 1.6 0.00 0.81 0.00 92 1013.9
20260507053031 10 20 0.0 3.2 0.00 0.81 0.00 91 1014.2
20260507051534 10 20 0.0 1.6 0.00 0.81 0.00 93 1014.3
20260507050040 10 10 0.0 3.2 0.00 0.81 0.00 94 1014.3
20260507044549 10 37 0.0 4.8 0.00 0.81 0.00 96 1014.3
20260507043056 10 5 0.0 3.2 0.00 0.81 0.00 96 1013.9
20260507041527 10 5 0.0 3.2 0.00 0.81 0.00 96 1013.9
20260507040028 10 5 0.0 3.2 0.00 0.81 0.81 96 1013.9
20260507034547 10 5 0.0 1.6 0.00 0.81 0.81 96 1013.7
20260507033054 10 5 0.0 1.6 0.00 0.81 0.81 95 1013.8
20260507031502 10 5 0.0 0.0 0.00 0.81 0.81 96 1014.3
20260507030006 10 5 0.0 0.0 0.00 0.81 0.81 95 1014.0
20260507024515 10 5 0.0 0.0 0.00 0.81 0.81 95 1013.7
20260507023019 10 5 0.0 1.6 0.00 0.81 0.81 95 1013.5
20260507021523 10 5 0.0 0.0 0.00 0.81 0.81 94 1013.3
20260507020030 10 5 0.0 3.2 0.00 0.81 0.81 94 1013.0
20260507014552 11 5 0.0 1.6 0.00 0.81 0.81 94 1013.1
20260507013054 11 5 0.0 3.2 0.00 0.81 0.81 94 1013.0
20260507011603 11 5 0.0 3.2 0.00 0.81 0.81 94 1013.1
20260507010002 11 5 0.0 3.2 0.00 0.81 0.81 93 1012.5
20260507004531 11 5 0.0 1.6 0.00 0.81 0.81 94 1012.6
20260507003027 11 5 0.0 0.0 0.00 0.81 0.81 94 1012.8